Regional Weather Roundup
Issued by NWS

Home | Current Version | Previous Version | Text Only | Print | Product List | Glossary On
Versions: 1 2 3 4 5 6 7 8 9 10 11 12 13 14 15 16 17 18 19 20 21 22 23 24 25 26 27 28 29 30 31 32 33 34 35 36 37 38 39 40 41 42 43 44 45 46 47 48 49 50
000
ASUS46 KSEW 221010
RWRWA

WASHINGTON REGIONAL WEATHER ROUNDUP
NATIONAL WEATHER SERVICE SEATTLE WA
300 AM PDT FRI MAY 22 2015

NOTE:"FAIR" INDICATES FEW OR NO CLOUDS BELOW 12,000 FEET WITH NO
SIGNIFICANT WEATHER AND/OR OBSTRUCTIONS TO VISIBILITY.

WAZ505-507>509-221100-
SEATTLE, TACOMA, EVERETT, AND VICINITY

CITY           SKY/WX    TMP DP  RH WIND       PRES   REMARKS
EVERETT        MOCLDY    54  51  90 CALM      29.91R
BOEING FIELD   MOCLDY    57  50  77 VRB6      29.91R
RENTON         MOCLDY    57  51  80 S7        29.91S
SEATAC AIRPORT CLOUDY    54  50  86 S9        29.92R
JBLM-MCCHORD   CLOUDY    54  53  97 S6        29.92
PUYALLUP       MOCLDY    54  52  94 VRB5      29.92S
BREMERTON      CLOUDY    52  52 100 SW9       29.93R
JBLM-FT LEWIS  CLOUDY    53  52  95 S6        29.92R
TACOMA NARROWS CLOUDY    53  50  89 SW6       29.92R
$$

WAZ001-503-506-510-514-515-221100-
NORTH INTERIOR

CITY           SKY/WX    TMP DP  RH WIND       PRES   REMARKS
BELLINGHAM     PTCLDY    56  51  84 S9G17     29.87S
FRIDAY HARBOR  PTCLDY    46  45  96 CALM      29.88S
EASTSOUND      PTCLDY    54  48  82 S6        29.85F
PORT ANGELES   CLOUDY    51  49  92 W9G18     29.91R
PORT TOWNSEND  CLOUDY    52  50  93 CALM      29.91R
NAS WHIDBEY    FOG       52  50  93 SW7       29.94S VSB 1
ARLINGTON      MOCLDY    52  46  82 NW5       29.92R
BURLINGTON     PTCLDY    50  50 100 CALM      29.91R
$$

WAZ020-022-039-040-504-511-512-221100-
SOUTHWEST INTERIOR

CITY           SKY/WX    TMP DP  RH WIND       PRES   REMARKS
SHELTON        CLOUDY    51  48  89 SW15      29.90F
OLYMPIA        MOCLDY    52  49  89 S8        29.92S
CHEHALIS       CLOUDY    54  52  94 CALM      29.94R
KELSO          CLOUDY    54  48  82 NW7       29.99R
VANCOUVER      CLOUDY    56  48  74 VRB3      29.95R
SCAPPOOSE, OR  PTCLDY    54  48  80 N6        29.94R
PORTLAND, OR   LGT RAIN  57  51  80 NE5       29.95R
$$

WAZ021-516-517-221100-
WASHINGTON COAST

CITY           SKY/WX    TMP DP  RH WIND       PRES   REMARKS
FORKS          CLOUDY    51  51 100 W3        29.96R FOG
HOQUIAM        CLOUDY    52  51  97 W9        29.95F FOG
ASTORIA, OR    CLOUDY    52  50  93 W6        29.97S
$$

WAZ019-023-024-040-518-519-221100-
CASCADE MOUNTAINS AND COLUMBIA GORGE

CITY           SKY/WX    TMP DP  RH WIND       PRES   REMARKS
TROUTDALE, OR  CLOUDY    57  50  77 CALM      29.93R
THE DALLES, OR MOCLDY    66  56  70 MISG      29.81R
$$

WAZ026-027-041>044-520-521-221100-
EAST SLOPES

CITY           SKY/WX    TMP DP  RH WIND       PRES   REMARKS
OMAK           MOCLDY    62  45  53 N8        29.80F
WENATCHEE      MOCLDY    66  47  50 NW9       29.81S
ELLENSBURG     PTCLDY    63  51  65 NW12      29.83R
YAKIMA         PTCLDY    65  51  60 N6        29.82R
$$

WAZ028-034-035-221100-
COLUMBIA BASIN

CITY           SKY/WX    TMP DP  RH WIND       PRES   REMARKS
EPHRATA        MOCLDY    58  49  72 S3        29.80S
MOSES LAKE     MOCLDY    65  51  60 NW13      29.78F
PASCO          PTCLDY    62  55  77 CALM      29.79S
HERMISTON, OR  MOCLDY    58  53  84 CALM      29.81R
$$

WAZ036>038-221100-
NORTHEAST WASHINGTON

CITY           SKY/WX    TMP DP  RH WIND       PRES   REMARKS
SPOKANE GEIGER MOCLDY    62  51  67 SE6       29.84S
SPOKANE FELTS  MOCLDY    60  54  80 NE6       29.84R
FAIRCHILD AFB  CLOUDY    60  51  70 W7        29.83F
COEURDALENE,ID PTCLDY    57  46  67 SE5       29.85S
DEER PARK      MOCLDY    52  47  83 NE7       29.85R
$$

WAZ029>033-221100-
SOUTHEAST WASHINGTON

CITY           SKY/WX    TMP DP  RH WIND       PRES   REMARKS
PULLMAN        PTCLDY    57  51  80 CALM      29.87S
LEWISTON, ID   MOCLDY    60  53  77 S6        29.83S
WALLA WALLA    CLOUDY    66  53  63 S7        29.83R
PENDLETON, OR  PTCLDY    59  51  75 SE7       29.84S
$$


USA.gov is the U.S. government's official web portal to all federal, state and local government web resources and services.